Regional Weather Roundup
Issued by NWS Goodland, KS

Home | Current Version | Previous Version | Graphics & Text | Print | Product List | Glossary On
Versions: 1 2 3 4 5 6 7 8 9 10 11 12 13 14 15 16 17 18 19 20 21 22 23 24 25 26 27 28 29 30 31 32 33 34 35 36 37 38 39 40 41 42 43 44 45 46 47 48 49 50
000
ASUS43 KGLD 041708
RWRGLD

GOODLAND FORECAST AREA HOURLY WEATHER ROUNDUP
NATIONAL WEATHER SERVICE GOODLAND KS
1100 AM MDT WED MAY 04 2016

...OFFICIAL OBSERVATIONS...

CITY           SKY/WX    TMP DP  RH WIND       PRES   REMARKS
GOODLAND KS    SUNNY     71  39  31 N10G18    30.19S
HILL CITY KS   SUNNY     70  38  31 N10       30.16R
IMPERIAL NEB   SUNNY     70  40  33 N9        30.18F
MCCOOK NEB     SUNNY     70  44  39 NE7       30.16S
AKRON CO       SUNNY     67  36  31 NE5       30.23F
BURLINGTON CO  SUNNY     70  34  26 N6        30.22F
LIMON CO       SUNNY     65  35  33 CALM      30.27S
$$

...UNOFFICIAL OBSERVATIONS...

CITY           SKY/WX    TMP DP  RH WIND       PRES   REMARKS
COLBY KS       SUNNY     70  50  49 NW10      30.19S
LENORA KS        N/A     67  32  27 MISG        N/A
NORTON KS      SUNNY     68  34  28 N9        30.15S
SHARON SPRINGS   N/A     72  46  39 NE7         N/A
TRIBUNE KS     SUNNY     73  37  27 N9        30.22R
KIT CARSON CO    N/A     70  41  34 MISG        N/A
YUMA CO          N/A     69  40  35 NE5         N/A
$$



USA.gov is the U.S. government's official web portal to all federal, state and local government web resources and services.